This is the latest recevied weather packets stored in our database for station/object KQ4KX. If no packets are shown the sender has not sent any weather packets the latest 10 day(s).
| Time | Temp. | Humidity | Pressure | Rain* | Wind** | Luminosity | Snow |
|---|---|---|---|---|---|---|---|
| 1778089264 | 32.78° C | 53% | 1017 hPa | 0 mm | - | - | - |
| 1778088934 | 32.78° C | 55% | 1017 hPa | 0 mm | - | - | - |
| 1778088634 | 32.78° C | 54% | 1017 hPa | 0 mm | - | - | - |
| 1778088334 | 32.78° C | 55% | 1017.1 hPa | 0 mm | - | - | - |
| 1778087674 | 32.78° C | 53% | 1017.2 hPa | 0 mm | - | - | - |
| 1778087344 | 32.78° C | 56% | 1017.2 hPa | 0 mm | - | - | - |
| 1778087014 | 32.78° C | 56% | 1017.3 hPa | 0 mm | - | - | - |
| 1778086054 | 32.22° C | 57% | 1017.4 hPa | 0 mm | - | - | - |
| 1778085724 | 32.22° C | 56% | 1017.4 hPa | 0 mm | - | - | - |
| 1778085424 | 32.22° C | 56% | 1017.4 hPa | 0 mm | - | - | - |
| 1778084824 | 32.22° C | 56% | 1017.4 hPa | 0 mm | - | - | - |
| 1778084494 | 32.22° C | 56% | 1017.4 hPa | 0 mm | - | - | - |
| 1778084194 | 32.22° C | 57% | 1017.6 hPa | 0 mm | - | - | - |
| 1778083864 | 32.22° C | 56% | 1017.5 hPa | 0 mm | - | - | - |
| 1778083564 | 31.67° C | 54% | 1017.4 hPa | 0 mm | - | - | - |
| 1778083234 | 32.22° C | 56% | 1017.5 hPa | 0 mm | - | - | - |
| 1778082934 | 31.67° C | 57% | 1017.4 hPa | 0 mm | - | - | - |
| 1778082604 | 31.67° C | 58% | 1017.4 hPa | 0 mm | - | - | - |
| 1778081974 | 31.11° C | 61% | 1017.6 hPa | 0 mm | - | - | - |
| 1778081750 | 31.11° C | 63% | 1017.6 hPa | 0 mm | - | - | - |
| 1778081674 | 31.11° C | 63% | 1017.6 hPa | 0 mm | - | - | - |
| 1778081374 | 30.56° C | 64% | 1017.6 hPa | 0 mm | - | - | - |
| 1778081044 | 30° C | 65% | 1017.7 hPa | 0 mm | - | - | - |
| 1778080715 | 29.44° C | 67% | 1017.7 hPa | 0 mm | - | - | - |
| 1778079755 | 28.89° C | 71% | 1017.4 hPa | 0 mm | - | - | - |
* Rain latest hour (hover to see other rain measurements)
** Current wind speed in m/s (hover to see current wind gust speed)